Location: Janeiro
(34.9957°N, 76.7652°W)
Time: 09:22:29
(UTC+00:00)

COSMO-SKYMED 1 - Pass Details

Date: 14 December 2019
Orbit: 621 x 623 km, 97.9° (Epoch: 21 January)

Event Time Altitude Azimuth Distance (km) Brightness Sun altitude
Exits shadow 23:34:02 - 2° (N) 2,485 5.5 -19.4°
Reaches altitude 10° 23:35:16 10° 359° (N) 1,997 5.0 -19.6°
Maximum altitude 23:39:24 45° 286° (WNW) 847 3.6 -20.4°
Drops below altitude 10° 23:43:31 10° 214° (SW) 1,983 5.8 -21.3°
Sets 23:45:45 0° 208° (SSW) 2,885 6.6 -21.7°
